Location: *
(34.8620°S, 39.3380°E)
Time: 20:54:21
(UTC+00:00)

SKYSAT 2 - Visible Passes

Search period start: 02 December 2023 00:00
Search period end: 12 December 2023 00:00
Orbit: 614 x 624 km, 98.3° (Epoch: 02 December)

Date Brightness Start Highest point End Pass type
(mag) Time Alt. Az. Time Alt. Az. Time Alt. Az.
02 Dec ? 19:28:35 35° SSE 19:28:35 35° SSE 19:31:33 10° S visible
02 Dec ? 21:05:43 10° WSW 21:05:43 10° WSW 21:05:47 10° WSW visible
03 Dec ? 19:45:43 41° S 19:45:43 41° S 19:48:41 10° S visible
04 Dec ? 20:02:50 38° SSW 20:02:50 38° SSW 20:05:39 10° SSW visible
05 Dec ? 18:42:49 14° ESE 18:42:49 14° ESE 18:44:53 10° SE visible
05 Dec ? 20:19:58 30° SW 20:19:58 30° SW 20:22:28 10° SSW visible
06 Dec ? 18:59:56 21° ESE 18:59:56 21° ESE 19:02:43 10° SSE visible
06 Dec ? 20:37:05 21° WSW 20:37:05 21° WSW 20:39:05 10° SW visible
07 Dec ? 19:17:03 29° SE 19:17:03 29° SE 19:20:08 10° S visible
07 Dec ? 20:54:11 15° WSW 20:54:11 15° WSW 20:55:24 10° SW visible
08 Dec ? 19:34:09 40° SSE 19:34:09 40° SSE 19:37:20 10° S visible
09 Dec ? 19:51:14 46° S 19:51:14 46° S 19:54:22 10° S visible
10 Dec ? 20:08:20 40° SW 20:08:20 40° SW 20:11:15 10° SSW visible
11 Dec ? 18:48:16 15° ESE 18:48:16 15° ESE 18:50:45 10° SSE visible
11 Dec ? 20:25:24 29° SW 20:25:24 29° SW 20:27:59 10° SSW visible
